[[{"header":{"parameterUnit":"m.s-1","parameterCategory":1,"la1":30.2991,"la2":30.254,"lo1":-89.0895,"lo2":-89.0444,"dy":0.0017,"dx":0.0017,"nx":28,"ny":28,"refTime":"2024-06-27T09:00:00:Z","depth":0,"parameterNumber":2,"parameterNumberName":"U-component_of_WINDS"},"data":[0,0,0,0,0,0,0,0,0,0,0,0,0,0,0,0,0,0,0,0,0,0,0,0,0,0,0,0,0,0,0,0,0,0,0,0,0,0,0,0,0,0,0,0,0,0,0,0,0,0,0,0,0,0,0,0,0,0,3.929,3.9291,0,3.9393,3.9394,3.9395,3.9358,3.9356,3.9354,3.9352,3.9457,3.9462,3.9467,0,0,0,0,0,0,0,0,0,0,0,0,0,3.906,3.9064,3.929,3.9291,3.9292,3.9392,3.9394,3.9395,3.9359,3.9356,3.9353,3.9351,3.9455,3.9461,3.9467,0,0,0,0,0,0,0,0,0,0,0,0,0,3.9161,3.9066,3.929,3.9286,3.9287,3.9392,3.9394,3.9396,3.9359,3.9356,3.9352,3.9349,3.9453,3.9461,3.9468,3.9582,0,0,3.9491,3.9494,0,0,0,0,0,0,0,0,3.9155,3.9169,3.9286,3.9287,3.9288,3.9359,3.9351,3.9458,3.936,3.9332,3.9352,3.9348,3.9427,3.9437,3.9463,3.9587,3.9592,3.9491,3.9496,3.9499,3.9501,0,0,0,0,0,0,0,3.9148,3.9165,3.933,3.9287,3.9289,3.9279,3.9289,3.9371,3.9398,3.9334,3.9332,3.9344,3.9427,3.9456,3.9466,3.9593,3.9491,3.9498,3.9502,3.9505,3.9811,3.9815,0,0,0,0,0,0,3.9141,3.9159,3.9327,3.9333,3.9212,3.9286,3.9298,3.934,3.9397,3.9402,3.9347,3.9342,3.9445,3.9457,3.9469,3.9603,3.9499,3.9506,3.951,3.9808,3.9812,3.9816,0,0,0,0,0,0,3.9136,3.9156,3.9323,3.9246,3.9266,3.9293,3.9341,3.9344,3.9373,3.9406,3.9411,3.9372,3.9443,3.9459,3.9553,3.9606,3.9509,3.9516,3.9803,3.9809,3.9814,3.9874,0,0,0,0,0,0,3.913,3.9155,3.9199,3.9247,3.927,3.9406,3.9344,3.9348,3.9385,3.938,3.9431,3.9436,3.9442,3.9542,3.9561,3.9615,3.9522,3.9799,3.9806,3.9812,3.9868,3.9881,3.9893,0,0,0,0,0,3.9122,3.9213,3.9202,3.9222,3.9327,3.941,3.9423,3.9427,3.939,3.9434,3.9455,3.9435,3.9598,3.9552,3.9573,3.963,3.9795,3.9804,3.9812,3.9862,3.9878,3.9892,0,0,0,0,0,0,3.9172,3.9219,3.9207,3.9317,3.936,3.9403,3.9459,3.9445,3.9499,3.9492,3.9495,3.9507,3.9603,3.9626,3.9575,3.9741,3.9691,3.9704,3.9722,3.9738,3.975,3.9741,3.9528,0,0,0,0,0,3.9196,3.926,3.9298,3.9391,3.9413,3.9432,3.9469,3.9468,3.9512,3.953,3.9558,3.9601,3.9661,3.9702,3.976,3.9871,3.988,3.992,3.9933,3.9943,3.9953,4.001,4.0027,3.9843,3.9843,3.9843,0,0,3.9246,3.928,3.932,3.9402,3.9434,3.9499,3.9448,3.9519,3.9566,3.9541,3.963,3.9653,3.9701,3.9803,3.985,3.9826,4.0006,3.9954,3.9962,3.9966,4.002,4.0037,4.0053,3.9849,3.9848,3.9847,0,0,3.9369,3.9403,3.9482,3.9515,3.9564,3.9576,3.9595,3.9641,3.9654,3.9744,3.9725,3.9781,3.9887,3.992,3.9952,4.0084,4.0066,4.0103,4.0168,4.0223,4.0237,4.025,4.0293,4.0309,4.0114,4.0114,4.0114,0,3.9424,3.9521,3.9524,3.9596,3.9631,3.961,3.9688,3.9721,3.9787,3.9811,3.9783,3.9912,3.9944,4.0051,4.0083,4.0111,4.013,4.0096,4.0235,4.0248,4.026,4.0301,4.0318,4.0118,4.0117,4.0117,4.0117,0,3.9585,3.9652,3.971,3.9773,3.9815,3.989,3.9903,3.9945,3.994,3.9954,4.0044,4.0081,4.0144,4.017,4.0167,4.0277,4.026,4.0234,4.0183,4.0281,4.032,4.0336,4.0123,4.0122,4.0121,4.012,0,0,3.9743,3.9804,3.9825,3.9851,3.9903,3.9955,4.0028,4.0089,4.0123,4.0169,4.0228,4.0316,4.0291,4.0326,4.0327,4.0376,4.0473,4.0343,4.0344,4.0363,4.0591,4.0608,4.0627,4.0462,4.0465,4.0468,4.0586,0,3.9867,3.9995,3.9998,4.0114,4.0174,4.0154,4.0217,4.0255,4.027,4.0322,4.0339,4.0399,4.0364,4.0384,4.0432,4.0451,4.0518,4.0443,4.0515,4.0517,4.05,4.0648,4.0666,4.0776,4.0602,4.0604,4.0606,0,4.0029,4.0078,4.02,4.0239,4.0265,4.0321,4.0375,4.0426,4.0468,4.0475,4.0513,4.0505,4.0577,4.0526,4.0624,4.0572,4.0602,4.0616,4.062,4.0624,4.0566,4.0652,4.0812,4.0827,4.0631,4.0629,4.0627,0,4.0127,4.0224,4.0308,4.0332,4.0381,4.042,4.0443,4.0481,4.0516,4.0563,4.0585,4.0641,4.0671,4.0714,4.072,4.0683,4.0817,4.0767,4.0823,4.0823,4.085,4.0848,4.1013,4.0875,4.0875,4.0875,4.0874,0,4.0263,4.0337,4.0351,4.0403,4.0485,4.0487,4.0568,4.0587,4.0621,4.0674,4.0661,4.0712,4.0719,4.0771,4.0777,4.0855,4.0869,4.0875,4.0875,4.0875,4.0873,4.0892,4.0883,4.0879,4.0878,4.0877,4.0876,0,4.0385,4.0398,4.0488,4.0526,4.0538,4.0596,4.0628,4.0676,4.0689,4.0757,4.0773,4.0794,4.0853,4.0865,4.0937,4.094,4.1032,4.1026,4.1017,4.1015,4.1069,4.1062,4.1249,4.1272,4.1123,4.1124,4.1125,0,4.047,4.0526,4.057,4.0604,4.0628,4.0685,4.0719,4.0724,4.0761,4.081,4.0852,4.091,4.0956,4.1053,4.1073,4.1127,4.112,4.1182,4.1128,4.1124,4.1116,4.1112,4.1115,4.1191,4.1193,4.1194,4.1195,0,4.0617,4.062,4.0671,4.0723,4.0765,4.0806,4.0846,4.0875,4.0884,4.0926,4.0986,4.1022,4.1094,4.115,4.1203,4.1225,4.1211,4.1212,4.1227,4.1225,4.1216,4.1218,4.1041,4.1207,4.1206,4.1205,4.1205,4.1204,4.072,4.0767,4.0805,4.0861,4.089,4.0927,4.0973,4.0991,4.1041,4.1098,4.1098,4.1164,4.12,4.127,4.1295,4.1345,4.1325,4.1348,4.1353,4.1358,4.1361,4.1211,4.1355,4.1355,4.1355,4.1354,4.1354,0,4.0863,4.0885,4.0937,4.0991,4.1035,4.1018,4.106,4.1097,4.1154,4.119,4.1235,4.1303,4.1357,4.1381,4.1434,4.147,4.1464,4.1483,4.1479,4.1483,4.1378,4.1357,4.1486,4.1486,4.1486,4.1486,4.1486,4.1486,4.0942,4.102,4.1027,4.1118,4.114,4.1203,4.1228,4.126,4.1288,4.1364,4.1409,4.1424,4.1454,4.1509,4.1557,4.1563,4.1581,4.1602,4.1605,4.1505,4.1491,4.1478,4.1459,4.1607,4.1607,4.1706,4.1707,4.1707]},{"header":{"parameterUnit":"m.s-1","parameterCategory":1,"la1":30.2991,"la2":30.254,"lo1":-89.0895,"lo2":-89.0444,"dy":0.0017,"dx":0.0017,"nx":28,"ny":28,"refTime":"2024-06-27T09:00:00:Z","depth":0,"parameterNumber":3,"parameterNumberName":"V-component_of_WINDS"},"data":[0,0,0,0,0,0,0,0,0,0,0,0,0,0,0,0,0,0,0,0,0,0,0,0,0,0,0,0,0,0,0,0,0,0,0,0,0,0,0,0,0,0,0,0,0,0,0,0,0,0,0,0,0,0,0,0,0,0,5.1757,5.1758,0,5.1909,5.1911,5.1912,5.1888,5.1885,5.1883,5.188,5.2032,5.2038,5.2045,0,0,0,0,0,0,0,0,0,0,0,0,0,5.1439,5.1445,5.1757,5.1759,5.176,5.1909,5.1911,5.1913,5.1888,5.1885,5.1882,5.1879,5.203,5.2037,5.2045,0,0,0,0,0,0,0,0,0,0,0,0,0,5.1583,5.1447,5.1756,5.1766,5.1769,5.1908,5.1911,5.1913,5.1889,5.1885,5.1881,5.1878,5.2027,5.2037,5.2046,5.2184,0,0,5.2076,5.208,0,0,0,0,0,0,0,0,5.1575,5.1594,5.1763,5.1766,5.1769,5.1876,5.1854,5.2004,5.189,5.1843,5.188,5.1876,5.1983,5.1996,5.2033,5.2191,5.2198,5.2077,5.2083,5.2087,5.209,0,0,0,0,0,0,0,5.1565,5.1588,5.1817,5.1765,5.1769,5.1761,5.1777,5.1883,5.1933,5.1847,5.1846,5.1864,5.1984,5.2024,5.2036,5.22,5.2076,5.2085,5.2091,5.2095,5.2476,5.248,0,0,0,0,0,0,5.1553,5.158,5.1812,5.1821,5.166,5.177,5.1788,5.1845,5.1932,5.1941,5.1867,5.1863,5.2009,5.2025,5.2041,5.2207,5.2087,5.2096,5.2101,5.2472,5.2477,5.2481,0,0,0,0,0,0,5.1546,5.1574,5.1806,5.17,5.1729,5.178,5.1844,5.185,5.189,5.1947,5.1955,5.1899,5.2007,5.2028,5.2148,5.2212,5.21,5.2109,5.2467,5.2473,5.2479,5.254,0,0,0,0,0,0,5.1537,5.1571,5.1626,5.1702,5.1735,5.1912,5.1848,5.1856,5.1908,5.1903,5.1979,5.1988,5.2005,5.2134,5.2158,5.2223,5.2117,5.2461,5.2469,5.2477,5.2532,5.2547,5.256,0,0,0,0,0,5.1526,5.1636,5.1629,5.1657,5.1804,5.1916,5.1935,5.1953,5.1913,5.1967,5.2003,5.1986,5.2201,5.2147,5.2174,5.2242,5.2457,5.2467,5.2477,5.2526,5.2544,5.256,0,0,0,0,0,0,5.1566,5.1647,5.1639,5.1778,5.184,5.1912,5.1981,5.1972,5.2047,5.2039,5.2057,5.2074,5.2196,5.2231,5.2169,5.2379,5.2323,5.2339,5.2351,5.2369,5.2383,5.2372,5.2125,0,0,0,0,0,5.1591,5.1677,5.1742,5.1858,5.189,5.193,5.1979,5.1988,5.2053,5.2079,5.2124,5.2186,5.2267,5.232,5.2398,5.2537,5.2552,5.2597,5.2611,5.2622,5.2635,5.2708,5.2729,5.2513,5.2513,5.2513,0,0,5.1644,5.1699,5.1751,5.1868,5.1917,5.2003,5.1952,5.2046,5.211,5.2092,5.2209,5.2244,5.2314,5.2444,5.2503,5.2477,5.2698,5.2635,5.2643,5.265,5.272,5.2741,5.2759,5.252,5.2519,5.2518,0,0,5.1784,5.1835,5.1936,5.1986,5.2062,5.2088,5.2112,5.2184,5.2207,5.2325,5.2313,5.2387,5.2528,5.2578,5.2621,5.2778,5.2764,5.2802,5.2875,5.2947,5.2963,5.2979,5.3032,5.3051,5.2815,5.2815,5.2815,0,5.1839,5.1971,5.1989,5.2084,5.2134,5.2123,5.2224,5.2272,5.2368,5.2402,5.2372,5.2546,5.2593,5.2733,5.2771,5.2807,5.2833,5.2794,5.296,5.2975,5.2989,5.3041,5.3061,5.2819,5.2819,5.2818,5.2818,0,5.2034,5.2125,5.2197,5.2291,5.235,5.2448,5.2478,5.2535,5.2538,5.2566,5.2684,5.2739,5.2827,5.2861,5.2865,5.3001,5.2982,5.2956,5.29,5.3014,5.3062,5.3082,5.2825,5.2824,5.2823,5.2822,0,0,5.2204,5.2306,5.2333,5.2374,5.2456,5.2525,5.2621,5.2708,5.2755,5.2822,5.2901,5.3019,5.2994,5.3044,5.3052,5.3115,5.3232,5.3081,5.3082,5.3105,5.3383,5.3401,5.3424,5.3224,5.3228,5.3231,5.3376,0,5.2351,5.2522,5.254,5.2691,5.2774,5.2764,5.2846,5.2904,5.2932,5.3005,5.3035,5.3118,5.308,5.311,5.3171,5.3205,5.3288,5.3195,5.3295,5.3299,5.3277,5.345,5.347,5.3605,5.3395,5.3399,5.3401,0,5.2545,5.2617,5.2777,5.2845,5.288,5.2955,5.3034,5.3105,5.3169,5.3185,5.3239,5.3239,5.3335,5.3276,5.3407,5.3344,5.3385,5.3408,5.3414,5.3423,5.3356,5.3462,5.3648,5.3668,5.3431,5.3429,5.3427,0,5.265,5.2788,5.2901,5.2937,5.3019,5.3071,5.3108,5.3168,5.3219,5.3288,5.332,5.3399,5.3442,5.3502,5.3523,5.3478,5.3652,5.3596,5.3666,5.3665,5.3702,5.37,5.3897,5.3732,5.3732,5.3731,5.3731,0,5.2811,5.2909,5.2949,5.3018,5.3127,5.3145,5.3251,5.3285,5.3339,5.3412,5.3408,5.3477,5.3501,5.3573,5.3589,5.3694,5.3714,5.3727,5.373,5.3727,5.3725,5.3754,5.3744,5.3737,5.3735,5.3734,5.3733,0,5.2947,5.2979,5.3101,5.3169,5.3188,5.3264,5.3321,5.3387,5.3413,5.3507,5.353,5.3571,5.3655,5.3682,5.3784,5.3795,5.3916,5.3912,5.3895,5.3895,5.3963,5.3956,5.4185,5.4215,5.4032,5.4033,5.4035,0,5.3047,5.3122,5.3198,5.3248,5.3286,5.3367,5.3418,5.3438,5.3492,5.3569,5.3625,5.3709,5.3777,5.3912,5.395,5.4027,5.4023,5.4098,5.4034,5.4028,5.4022,5.4017,5.4023,5.4109,5.4111,5.4113,5.4114,0,5.3221,5.3232,5.3307,5.3387,5.3448,5.3512,5.3573,5.3613,5.3642,5.3702,5.3789,5.3842,5.3945,5.4028,5.4106,5.4141,5.4132,5.4134,5.4154,5.4151,5.4137,5.4143,5.3926,5.4128,5.4127,5.4126,5.4125,5.4125,5.3341,5.3406,5.3469,5.3552,5.36,5.3657,5.3721,5.3755,5.3829,5.3916,5.3923,5.4016,5.4075,5.4179,5.4218,5.429,5.4268,5.4298,5.4305,5.4312,5.4316,5.4127,5.4305,5.4304,5.4304,5.4304,5.4303,0,5.3512,5.3552,5.3628,5.3714,5.3778,5.3765,5.3831,5.3885,5.3968,5.4025,5.4092,5.419,5.427,5.4313,5.4392,5.4441,5.4438,5.446,5.4456,5.4464,5.4332,5.4306,5.4461,5.4461,5.4461,5.4461,5.4461,5.4461,5.3609,5.3718,5.3736,5.3868,5.3906,5.3999,5.4037,5.4088,5.4134,5.4244,5.4311,5.4339,5.439,5.4471,5.4543,5.4553,5.4581,5.4606,5.4614,5.449,5.4473,5.4458,5.4434,5.4613,5.4613,5.4739,5.474,5.4741]}]]